sat.trackr.live / text

‹ back to catalog

STARLINK-4211

NORAD 52873 · 2022-062AV

PAYLOAD ACTIVE UNKNOWN

§ Identity

Operator
Country
US
Launch date
2022-06-17
Launch site
AFETR
Launch vehicle
Mass (kg)
RCS (m²)

Purposes: comms

External: N2YO · Heavens-Above · Gunter

§ Orbital elements

Epoch: 2026-05-25T01:32:25.889856Z

Period
95.44 min
Inclination
53.2129°
Eccentricity
0.0001848
Mean motion
15.08835329 rev/d
Perigee alt
538.5 km
Apogee alt
541.0 km
Semi-major
6,917.9 km
B*
1.1463e-4
RAAN
31.2626°
Arg perigee
87.9771°
Mean anomaly
272.1433°
Rev number
21,759

§ Raw data

STARLINK-42111 52873U 22062AV  26145.06418854  .00001536  00000+0  11463-3 0  99932 52873  53.2129  31.2626 0001848  87.9771 272.1433 15.08835329217599

JSON: /api/v1/satellites/52873 · /tle

For live sub-satellite position, see the globe view (requires WebGL).

§ Visibility from observer

Set your observer location to see the next 7 days of passes ≥ 10°. The values pass through the URL so the page stays shareable.

No JS? Fill the form by hand. The geolocation button needs JavaScript.